Time,TemperatureF,DewpointF,PressureIn,WindDirection,WindDirectionDegrees,WindSpeedMPH,WindSpeedGustMPH,Humidity,HourlyPrecipIn,Conditions,Clouds,dailyrainin,SoftwareType,DateUTC
2013-07-08 00:00:00,81.9,65.7,29.82,South,169,12.0,12.0,58,0.00,,,0.00,Wunderground v.1.15,2013-07-08 05:00:00,
2013-07-08 00:07:00,81.6,65.4,29.82,South,174,12.0,18.0,58,0.00,,,0.00,Wunderground v.1.15,2013-07-08 05:07:00,
2013-07-08 00:13:00,81.5,65.8,29.82,South,186,13.0,19.0,59,0.00,,,0.00,Wunderground v.1.15,2013-07-08 05:13:00,
2013-07-08 00:18:00,81.2,65.5,29.82,South,188,13.0,20.0,59,0.00,,,0.00,Wunderground v.1.15,2013-07-08 05:18:00,
2013-07-08 00:24:00,81.0,65.8,29.82,South,177,13.0,18.0,60,0.00,,,0.00,Wunderground v.1.15,2013-07-08 05:24:00,
2013-07-08 00:29:00,80.9,65.7,29.82,South,184,14.0,18.0,60,0.00,,,0.00,Wunderground v.1.15,2013-07-08 05:29:00,
2013-07-08 00:34:00,80.7,65.5,29.82,South,175,14.0,17.0,60,0.00,,,0.00,Wunderground v.1.15,2013-07-08 05:34:00,
2013-07-08 00:40:00,80.6,65.4,29.82,South,174,13.0,13.0,60,0.00,,,0.00,Wunderground v.1.15,2013-07-08 05:40:00,
2013-07-08 00:45:00,80.5,65.8,29.82,South,186,13.0,17.0,61,0.00,,,0.00,Wunderground v.1.15,2013-07-08 05:45:00,
2013-07-08 00:51:00,80.4,65.7,29.82,South,178,13.0,14.0,61,0.00,,,0.00,Wunderground v.1.15,2013-07-08 05:51:00,
2013-07-08 00:56:00,80.4,65.7,29.83,South,186,12.0,16.0,61,0.00,,,0.00,Wunderground v.1.15,2013-07-08 05:56:00,
2013-07-08 01:01:00,80.3,65.6,29.83,SSE,163,12.0,16.0,61,0.00,,,0.00,Wunderground v.1.15,2013-07-08 06:01:00,
2013-07-08 01:07:00,80.2,65.5,29.83,South,177,12.0,16.0,61,0.00,,,0.00,Wunderground v.1.15,2013-07-08 06:07:00,
2013-07-08 01:12:00,80.1,65.4,29.83,South,181,11.0,14.0,61,0.00,,,0.00,Wunderground v.1.15,2013-07-08 06:12:00,
2013-07-08 01:17:00,80.1,65.4,29.83,South,179,11.0,14.0,61,0.00,,,0.00,Wunderground v.1.15,2013-07-08 06:17:00,
2013-07-08 01:23:00,80.0,65.3,29.82,SSW,192,12.0,17.0,61,0.00,,,0.00,Wunderground v.1.15,2013-07-08 06:23:00,
2013-07-08 01:28:00,79.9,65.7,29.82,South,185,12.0,17.0,62,0.00,,,0.00,Wunderground v.1.15,2013-07-08 06:28:00,
2013-07-08 01:34:00,79.7,65.5,29.82,South,184,11.0,13.0,62,0.00,,,0.00,Wunderground v.1.15,2013-07-08 06:34:00,
2013-07-08 01:39:00,79.6,65.4,29.82,South,175,11.0,14.0,62,0.00,,,0.00,Wunderground v.1.15,2013-07-08 06:39:00,
2013-07-08 01:45:00,79.4,65.2,29.82,South,180,10.0,12.0,62,0.00,,,0.00,Wunderground v.1.15,2013-07-08 06:45:00,
2013-07-08 01:50:00,79.3,65.1,29.82,South,184,11.0,11.0,62,0.00,,,0.00,Wunderground v.1.15,2013-07-08 06:50:00,
2013-07-08 01:55:00,79.3,65.6,29.83,South,190,10.0,16.0,63,0.00,,,0.00,Wunderground v.1.15,2013-07-08 06:55:00,
2013-07-08 02:00:00,79.1,65.4,29.82,South,170,9.0,11.0,63,0.00,,,0.00,Wunderground v.1.15,2013-07-08 07:00:00,
2013-07-08 02:05:00,79.1,65.4,29.82,South,189,10.0,14.0,63,0.00,,,0.00,Wunderground v.1.15,2013-07-08 07:05:00,
2013-07-08 02:11:00,79.0,65.3,29.83,South,178,11.0,15.0,63,0.00,,,0.00,Wunderground v.1.15,2013-07-08 07:11:00,
2013-07-08 02:17:00,78.9,65.2,29.82,South,172,10.0,15.0,63,0.00,,,0.00,Wunderground v.1.15,2013-07-08 07:17:00,
2013-07-08 02:22:00,78.8,65.6,29.82,South,186,10.0,11.0,64,0.00,,,0.00,Wunderground v.1.15,2013-07-08 07:22:00,
2013-07-08 02:27:00,78.8,65.6,29.83,SSW,198,10.0,12.0,64,0.00,,,0.00,Wunderground v.1.15,2013-07-08 07:27:00,
2013-07-08 02:32:00,78.7,65.5,29.83,SSW,210,11.0,15.0,64,0.00,,,0.00,Wunderground v.1.15,2013-07-08 07:32:00,
2013-07-08 02:38:00,78.7,65.5,29.82,SSW,209,12.0,16.0,64,0.00,,,0.00,Wunderground v.1.15,2013-07-08 07:38:00,
2013-07-08 02:43:00,78.6,65.4,29.82,SSW,195,11.0,14.0,64,0.00,,,0.00,Wunderground v.1.15,2013-07-08 07:43:00,
2013-07-08 02:48:00,78.6,65.4,29.83,South,183,11.0,17.0,64,0.00,,,0.00,Wunderground v.1.15,2013-07-08 07:48:00,
2013-07-08 02:54:00,78.4,65.2,29.83,South,184,11.0,15.0,64,0.00,,,0.00,Wunderground v.1.15,2013-07-08 07:54:00,
2013-07-08 02:56:00,78.3,65.6,29.83,South,178,11.0,15.0,65,0.00,,,0.00,Wunderground v.1.15,2013-07-08 07:56:00,
2013-07-08 03:01:00,78.3,65.6,29.83,South,175,10.0,13.0,65,0.00,,,0.00,Wunderground v.1.15,2013-07-08 08:01:00,
2013-07-08 03:07:00,78.2,65.5,29.83,SSE,152,10.0,13.0,65,0.00,,,0.00,Wunderground v.1.15,2013-07-08 08:07:00,
2013-07-08 03:13:00,78.1,65.4,29.83,South,184,10.0,15.0,65,0.00,,,0.00,Wunderground v.1.15,2013-07-08 08:13:00,
2013-07-08 03:18:00,78.2,65.5,29.83,SSE,165,10.0,15.0,65,0.00,,,0.00,Wunderground v.1.15,2013-07-08 08:18:00,
2013-07-08 03:23:00,78.2,65.5,29.83,SSW,199,10.0,15.0,65,0.00,,,0.00,Wunderground v.1.15,2013-07-08 08:23:00,
2013-07-08 03:28:00,78.2,65.5,29.83,South,188,10.0,15.0,65,0.00,,,0.00,Wunderground v.1.15,2013-07-08 08:28:00,
2013-07-08 03:34:00,78.3,65.6,29.83,South,190,10.0,12.0,65,0.00,,,0.00,Wunderground v.1.15,2013-07-08 08:34:00,
2013-07-08 03:39:00,78.3,65.6,29.83,South,180,10.0,12.0,65,0.00,,,0.00,Wunderground v.1.15,2013-07-08 08:39:00,
2013-07-08 03:44:00,78.2,65.5,29.83,South,180,10.0,13.0,65,0.00,,,0.00,Wunderground v.1.15,2013-07-08 08:44:00,
2013-07-08 03:50:00,78.2,65.5,29.83,South,177,10.0,11.0,65,0.00,,,0.00,Wunderground v.1.15,2013-07-08 08:50:00,
2013-07-08 03:55:00,78.1,65.4,29.83,SSW,207,10.0,12.0,65,0.00,,,0.00,Wunderground v.1.15,2013-07-08 08:55:00,
2013-07-08 04:01:00,77.9,65.2,29.83,South,180,10.0,14.0,65,0.00,,,0.00,Wunderground v.1.15,2013-07-08 09:01:00,
2013-07-08 04:07:00,77.7,65.0,29.83,South,183,10.0,14.0,65,0.00,,,0.00,Wunderground v.1.15,2013-07-08 09:07:00,
2013-07-08 04:13:00,77.5,65.2,29.83,South,184,10.0,12.0,66,0.00,,,0.00,Wunderground v.1.15,2013-07-08 09:13:00,
2013-07-08 04:18:00,77.5,65.2,29.83,SSW,193,10.0,13.0,66,0.00,,,0.00,Wunderground v.1.15,2013-07-08 09:18:00,
2013-07-08 04:24:00,77.3,65.1,29.83,South,188,10.0,14.0,66,0.00,,,0.00,Wunderground v.1.15,2013-07-08 09:24:00,
2013-07-08 04:29:00,77.4,65.1,29.83,South,190,10.0,14.0,66,0.00,,,0.00,Wunderground v.1.15,2013-07-08 09:29:00,
2013-07-08 04:34:00,77.3,64.6,29.83,South,173,10.0,12.0,65,0.00,,,0.00,Wunderground v.1.15,2013-07-08 09:34:00,
2013-07-08 04:40:00,77.2,65.0,29.83,South,186,9.0,9.0,66,0.00,,,0.00,Wunderground v.1.15,2013-07-08 09:40:00,
2013-07-08 04:45:00,77.1,64.9,29.83,South,182,9.0,12.0,66,0.00,,,0.00,Wunderground v.1.15,2013-07-08 09:45:00,
2013-07-08 04:50:00,76.8,65.0,29.83,South,175,9.0,11.0,67,0.00,,,0.00,Wunderground v.1.15,2013-07-08 09:50:00,
2013-07-08 04:55:00,76.7,64.9,29.84,South,181,9.0,11.0,67,0.00,,,0.00,Wunderground v.1.15,2013-07-08 09:55:00,
2013-07-08 05:01:00,76.6,64.8,29.84,South,180,9.0,9.0,67,0.00,,,0.00,Wunderground v.1.15,2013-07-08 10:01:00,
2013-07-08 05:06:00,76.4,65.1,29.84,South,182,8.0,10.0,68,0.00,,,0.00,Wunderground v.1.15,2013-07-08 10:06:00,
2013-07-08 05:12:00,76.3,65.0,29.84,South,188,8.0,10.0,68,0.00,,,0.00,Wunderground v.1.15,2013-07-08 10:12:00,
2013-07-08 05:17:00,76.2,64.9,29.84,South,177,8.0,11.0,68,0.00,,,0.00,Wunderground v.1.15,2013-07-08 10:17:00,
2013-07-08 05:23:00,76.1,64.8,29.85,South,189,8.0,10.0,68,0.00,,,0.00,Wunderground v.1.15,2013-07-08 10:23:00,
2013-07-08 05:28:00,76.1,65.2,29.85,South,174,8.0,10.0,69,0.00,,,0.00,Wunderground v.1.15,2013-07-08 10:28:00,
2013-07-08 05:33:00,76.0,65.1,29.85,South,173,8.0,10.0,69,0.00,,,0.00,Wunderground v.1.15,2013-07-08 10:33:00,
2013-07-08 05:39:00,75.9,65.0,29.85,South,187,7.0,10.0,69,0.00,,,0.00,Wunderground v.1.15,2013-07-08 10:39:00,
2013-07-08 05:44:00,75.9,65.0,29.86,South,169,6.0,7.0,69,0.00,,,0.00,Wunderground v.1.15,2013-07-08 10:44:00,
2013-07-08 05:50:00,75.9,65.0,29.86,SSE,152,5.0,6.0,69,0.00,,,0.00,Wunderground v.1.15,2013-07-08 10:50:00,
2013-07-08 05:56:00,75.7,64.8,29.86,SE,146,5.0,6.0,69,0.00,,,0.00,Wunderground v.1.15,2013-07-08 10:56:00,
2013-07-08 06:01:00,75.6,64.7,29.87,ESE,119,5.0,6.0,69,0.00,,,0.00,Wunderground v.1.15,2013-07-08 11:01:00,
2013-07-08 06:07:00,75.6,64.7,29.87,SE,130,5.0,6.0,69,0.00,,,0.00,Wunderground v.1.15,2013-07-08 11:07:00,
2013-07-08 06:13:00,75.4,64.9,29.87,SE,132,5.0,5.0,70,0.00,,,0.00,Wunderground v.1.15,2013-07-08 11:13:00,
2013-07-08 06:18:00,75.3,64.8,29.87,SSE,159,5.0,7.0,70,0.00,,,0.00,Wunderground v.1.15,2013-07-08 11:18:00,
2013-07-08 06:24:00,75.3,64.8,29.87,SE,134,6.0,10.0,70,0.00,,,0.00,Wunderground v.1.15,2013-07-08 11:24:00,
2013-07-08 06:29:00,75.3,64.8,29.87,SE,142,6.0,10.0,70,0.00,,,0.00,Wunderground v.1.15,2013-07-08 11:29:00,
2013-07-08 06:35:00,75.4,64.9,29.87,SSE,165,6.0,10.0,70,0.00,,,0.00,Wunderground v.1.15,2013-07-08 11:35:00,
2013-07-08 06:40:00,75.6,64.7,29.87,SE,146,7.0,10.0,69,0.00,,,0.00,Wunderground v.1.15,2013-07-08 11:40:00,
2013-07-08 06:45:00,75.7,64.8,29.87,SSE,163,6.0,9.0,69,0.00,,,0.00,Wunderground v.1.15,2013-07-08 11:45:00,
2013-07-08 06:51:00,75.8,64.5,29.87,SSE,161,7.0,9.0,68,0.00,,,0.00,Wunderground v.1.15,2013-07-08 11:51:00,
2013-07-08 06:56:00,75.9,64.6,29.87,South,175,8.0,10.0,68,0.00,,,0.00,Wunderground v.1.15,2013-07-08 11:56:00,
2013-07-08 07:02:00,75.9,64.6,29.87,SSE,156,8.0,10.0,68,0.00,,,0.00,Wunderground v.1.15,2013-07-08 12:02:00,
2013-07-08 07:08:00,75.9,64.6,29.87,SSE,150,9.0,11.0,68,0.00,,,0.00,Wunderground v.1.15,2013-07-08 12:08:00,
2013-07-08 07:13:00,75.8,64.5,29.87,South,170,8.0,11.0,68,0.00,,,0.00,Wunderground v.1.15,2013-07-08 12:13:00,
2013-07-08 07:19:00,75.7,64.8,29.87,SSE,163,7.0,11.0,69,0.00,,,0.00,Wunderground v.1.15,2013-07-08 12:19:00,
2013-07-08 07:24:00,75.6,64.7,29.87,SSE,153,7.0,10.0,69,0.00,,,0.00,Wunderground v.1.15,2013-07-08 12:24:00,
2013-07-08 07:29:00,75.5,64.6,29.87,SSE,160,7.0,10.0,69,0.00,,,0.00,Wunderground v.1.15,2013-07-08 12:29:00,
2013-07-08 07:35:00,75.4,64.9,29.88,SE,142,7.0,9.0,70,0.00,,,0.00,Wunderground v.1.15,2013-07-08 12:35:00,
2013-07-08 07:40:00,75.4,64.9,29.88,SSE,157,7.0,8.0,70,0.00,,,0.00,Wunderground v.1.15,2013-07-08 12:40:00,
2013-07-08 07:45:00,75.4,64.9,29.88,SSE,162,6.0,8.0,70,0.00,,,0.00,Wunderground v.1.15,2013-07-08 12:45:00,
2013-07-08 07:51:00,75.6,65.1,29.88,SSE,165,7.0,8.0,70,0.00,,,0.00,Wunderground v.1.15,2013-07-08 12:51:00,
2013-07-08 07:56:00,75.9,65.4,29.88,SSE,165,8.0,12.0,70,0.00,,,0.00,Wunderground v.1.15,2013-07-08 12:56:00,
2013-07-08 08:01:00,76.1,65.6,29.88,SSE,167,9.0,9.0,70,0.00,,,0.00,Wunderground v.1.15,2013-07-08 13:01:00,
2013-07-08 08:06:00,76.6,65.7,29.88,South,170,9.0,12.0,69,0.00,,,0.00,Wunderground v.1.15,2013-07-08 13:06:00,
2013-07-08 08:12:00,77.0,66.0,29.88,SSE,159,9.0,13.0,69,0.00,,,0.00,Wunderground v.1.15,2013-07-08 13:12:00,
2013-07-08 08:17:00,77.3,65.9,29.88,SSE,165,10.0,13.0,68,0.00,,,0.00,Wunderground v.1.15,2013-07-08 13:17:00,
2013-07-08 08:22:00,77.6,65.8,29.88,South,171,11.0,13.0,67,0.00,,,0.00,Wunderground v.1.15,2013-07-08 13:22:00,
2013-07-08 08:28:00,78.0,66.2,29.88,South,182,12.0,18.0,67,0.00,,,0.00,Wunderground v.1.15,2013-07-08 13:28:00,
2013-07-08 08:29:00,78.1,66.2,29.88,South,175,12.0,18.0,67,0.00,,,0.00,Wunderground v.1.15,2013-07-08 13:29:00,
2013-07-08 08:35:00,78.6,66.3,29.89,SSW,205,11.0,13.0,66,0.00,,,0.00,Wunderground v.1.15,2013-07-08 13:35:00,
2013-07-08 08:40:00,79.0,66.7,29.89,South,179,9.0,10.0,66,0.00,,,0.00,Wunderground v.1.15,2013-07-08 13:40:00,
2013-07-08 08:45:00,79.6,66.8,29.89,South,191,9.0,13.0,65,0.00,,,0.00,Wunderground v.1.15,2013-07-08 13:45:00,
2013-07-08 08:51:00,79.8,66.5,29.89,SSE,165,10.0,18.0,64,0.00,,,0.00,Wunderground v.1.15,2013-07-08 13:51:00,
2013-07-08 08:56:00,80.5,67.6,29.88,SSW,209,12.0,18.0,65,0.00,,,0.00,Wunderground v.1.15,2013-07-08 13:56:00,
2013-07-08 09:01:00,81.2,67.4,29.88,South,186,11.0,14.0,63,0.00,,,0.00,Wunderground v.1.15,2013-07-08 14:01:00,
2013-07-08 09:06:00,81.7,67.4,29.89,SSW,213,10.0,14.0,62,0.00,,,0.00,Wunderground v.1.15,2013-07-08 14:06:00,
2013-07-08 09:12:00,81.7,66.5,29.88,SW,223,12.0,18.0,60,0.00,,,0.00,Wunderground v.1.15,2013-07-08 14:12:00,
2013-07-08 09:18:00,82.2,67.4,29.88,SSW,194,12.0,18.0,61,0.00,,,0.00,Wunderground v.1.15,2013-07-08 14:18:00,
2013-07-08 09:23:00,82.4,67.1,29.88,SSW,211,11.0,20.0,60,0.00,,,0.00,Wunderground v.1.15,2013-07-08 14:23:00,
2013-07-08 09:28:00,82.6,67.3,29.88,SSW,199,12.0,20.0,60,0.00,,,0.00,Wunderground v.1.15,2013-07-08 14:28:00,
2013-07-08 09:34:00,82.8,67.0,29.88,SSW,196,12.0,17.0,59,0.00,,,0.00,Wunderground v.1.15,2013-07-08 14:34:00,
2013-07-08 09:39:00,83.3,67.0,29.89,SSW,192,13.0,17.0,58,0.00,,,0.00,Wunderground v.1.15,2013-07-08 14:39:00,
2013-07-08 09:45:00,83.9,67.5,29.89,SSW,213,13.0,17.0,58,0.00,,,0.00,Wunderground v.1.15,2013-07-08 14:45:00,
2013-07-08 09:50:00,84.2,67.3,29.88,SSW,200,12.0,12.0,57,0.00,,,0.00,Wunderground v.1.15,2013-07-08 14:50:00,
2013-07-08 09:56:00,85.1,67.6,29.89,SSW,194,12.0,21.0,56,0.00,,,0.00,Wunderground v.1.15,2013-07-08 14:56:00,
2013-07-08 10:02:00,85.1,67.1,29.89,SSW,201,14.0,18.0,55,0.00,,,0.00,Wunderground v.1.15,2013-07-08 15:02:00,
2013-07-08 10:08:00,85.6,67.6,29.88,South,183,13.0,18.0,55,0.00,,,0.00,Wunderground v.1.15,2013-07-08 15:08:00,
2013-07-08 10:13:00,85.6,67.6,29.88,South,188,13.0,19.0,55,0.00,,,0.00,Wunderground v.1.15,2013-07-08 15:13:00,
2013-07-08 10:19:00,86.4,68.3,29.88,SSW,208,12.0,19.0,55,0.00,,,0.00,Wunderground v.1.15,2013-07-08 15:19:00,
2013-07-08 10:24:00,86.7,68.1,29.88,SSW,208,10.0,17.0,54,0.00,,,0.00,Wunderground v.1.15,2013-07-08 15:24:00,
2013-07-08 10:30:00,86.7,67.5,29.88,SW,220,12.0,12.0,53,0.00,,,0.00,Wunderground v.1.15,2013-07-08 15:30:00,
2013-07-08 10:35:00,87.1,67.3,29.88,South,178,11.0,15.0,52,0.00,,,0.00,Wunderground v.1.15,2013-07-08 15:35:00,
2013-07-08 10:40:00,87.7,66.8,29.88,South,182,11.0,19.0,50,0.00,,,0.00,Wunderground v.1.15,2013-07-08 15:40:00,
2013-07-08 10:46:00,88.1,67.1,29.88,South,186,13.0,19.0,50,0.00,,,0.00,Wunderground v.1.15,2013-07-08 15:46:00,
2013-07-08 10:51:00,88.2,66.6,29.88,SSW,213,13.0,18.0,49,0.00,,,0.00,Wunderground v.1.15,2013-07-08 15:51:00,
2013-07-08 10:57:00,88.8,67.2,29.88,South,188,13.0,18.0,49,0.00,,,0.00,Wunderground v.1.15,2013-07-08 15:57:00,
2013-07-08 11:02:00,88.9,67.3,29.88,SSW,211,13.0,19.0,49,0.00,,,0.00,Wunderground v.1.15,2013-07-08 16:02:00,
2013-07-08 11:08:00,89.3,67.0,29.87,SW,217,14.0,20.0,48,0.00,,,0.00,Wunderground v.1.15,2013-07-08 16:08:00,
2013-07-08 11:13:00,89.3,67.0,29.87,SSW,202,13.0,16.0,48,0.00,,,0.00,Wunderground v.1.15,2013-07-08 16:13:00,
2013-07-08 11:19:00,90.0,67.1,29.87,SW,234,12.0,16.0,47,0.00,,,0.00,Wunderground v.1.15,2013-07-08 16:19:00,
2013-07-08 11:24:00,90.6,67.0,29.87,SSW,209,12.0,15.0,46,0.00,,,0.00,Wunderground v.1.15,2013-07-08 16:24:00,
2013-07-08 11:30:00,90.8,67.2,29.87,SW,220,12.0,20.0,46,0.00,,,0.00,Wunderground v.1.15,2013-07-08 16:30:00,
2013-07-08 11:35:00,90.5,66.3,29.86,SW,218,13.0,20.0,45,0.00,,,0.00,Wunderground v.1.15,2013-07-08 16:35:00,
2013-07-08 11:41:00,90.8,66.5,29.86,SSW,198,13.0,14.0,45,0.00,,,0.00,Wunderground v.1.15,2013-07-08 16:41:00,
2013-07-08 11:46:00,91.5,67.8,29.86,SSW,193,12.0,18.0,46,0.00,,,0.00,Wunderground v.1.15,2013-07-08 16:46:00,
2013-07-08 11:51:00,91.6,65.9,29.86,SSW,202,13.0,23.0,43,0.00,,,0.00,Wunderground v.1.15,2013-07-08 16:51:00,
2013-07-08 11:57:00,92.0,67.0,29.86,SSW,205,13.0,23.0,44,0.00,,,0.00,Wunderground v.1.15,2013-07-08 16:57:00,
2013-07-08 12:02:00,91.7,66.7,29.86,SW,225,13.0,19.0,44,0.00,,,0.00,Wunderground v.1.15,2013-07-08 17:02:00,
2013-07-08 12:08:00,92.0,67.0,29.85,SSW,211,13.0,19.0,44,0.00,,,0.00,Wunderground v.1.15,2013-07-08 17:08:00,
2013-07-08 12:13:00,92.2,65.8,29.85,SW,221,14.0,17.0,42,0.00,,,0.00,Wunderground v.1.15,2013-07-08 17:13:00,
2013-07-08 12:19:00,92.8,65.6,29.85,South,173,13.0,17.0,41,0.00,,,0.00,Wunderground v.1.15,2013-07-08 17:19:00,
2013-07-08 12:26:00,92.9,65.7,29.85,SW,231,11.0,17.0,41,0.00,,,0.00,Wunderground v.1.15,2013-07-08 17:26:00,
2013-07-08 12:32:00,93.3,64.7,29.85,South,170,11.0,17.0,39,0.00,,,0.00,Wunderground v.1.15,2013-07-08 17:32:00,
2013-07-08 12:38:00,93.6,65.6,29.85,SSE,168,11.0,17.0,40,0.00,,,0.00,Wunderground v.1.15,2013-07-08 17:38:00,
2013-07-08 12:43:00,94.6,63.5,29.85,SSE,153,11.0,16.0,36,0.00,,,0.00,Wunderground v.1.15,2013-07-08 17:43:00,
2013-07-08 12:49:00,94.3,64.0,29.85,SSE,158,13.0,18.0,37,0.00,,,0.00,Wunderground v.1.15,2013-07-08 17:49:00,
2013-07-08 12:54:00,94.5,66.4,29.84,South,173,13.0,16.0,40,0.00,,,0.00,Wunderground v.1.15,2013-07-08 17:54:00,
2013-07-08 13:00:00,94.6,65.8,29.84,South,184,15.0,15.0,39,0.00,,,0.00,Wunderground v.1.15,2013-07-08 18:00:00,
2013-07-08 13:05:00,94.9,64.6,29.84,SSE,152,14.0,20.0,37,0.00,,,0.00,Wunderground v.1.15,2013-07-08 18:05:00,
2013-07-08 13:11:00,94.9,65.3,29.83,SSW,200,11.0,14.0,38,0.00,,,0.00,Wunderground v.1.15,2013-07-08 18:11:00,
2013-07-08 13:17:00,95.7,65.3,29.83,South,182,12.0,17.0,37,0.00,,,0.00,Wunderground v.1.15,2013-07-08 18:17:00,
2013-07-08 13:22:00,95.5,64.3,29.83,SW,219,12.0,12.0,36,0.00,,,0.00,Wunderground v.1.15,2013-07-08 18:22:00,
2013-07-08 13:29:00,95.7,64.5,29.83,South,184,11.0,18.0,36,0.00,,,0.00,Wunderground v.1.15,2013-07-08 18:29:00,
2013-07-08 13:35:00,95.5,64.3,29.83,South,178,16.0,21.0,36,0.00,,,0.00,Wunderground v.1.15,2013-07-08 18:35:00,
2013-07-08 13:41:00,95.6,64.4,29.83,SSE,150,16.0,16.0,36,0.00,,,0.00,Wunderground v.1.15,2013-07-08 18:41:00,
2013-07-08 13:47:00,95.9,63.0,29.83,SSW,196,14.0,18.0,34,0.00,,,0.00,Wunderground v.1.15,2013-07-08 18:47:00,
2013-07-08 13:52:00,96.0,66.3,29.82,SSW,192,13.0,14.0,38,0.00,,,0.00,Wunderground v.1.15,2013-07-08 18:52:00,
2013-07-08 13:58:00,96.1,64.0,29.82,SSW,192,12.0,16.0,35,0.00,,,0.00,Wunderground v.1.15,2013-07-08 18:58:00,
2013-07-08 14:03:00,96.5,63.5,29.82,South,179,13.0,19.0,34,0.00,,,0.00,Wunderground v.1.15,2013-07-08 19:03:00,
2013-07-08 14:08:00,96.3,63.4,29.82,South,171,14.0,19.0,34,0.00,,,0.00,Wunderground v.1.15,2013-07-08 19:08:00,
2013-07-08 14:15:00,96.9,62.2,29.82,South,173,13.0,16.0,32,0.00,,,0.00,Wunderground v.1.15,2013-07-08 19:15:00,
2013-07-08 14:20:00,96.8,63.8,29.82,SSW,192,15.0,16.0,34,0.00,,,0.00,Wunderground v.1.15,2013-07-08 19:20:00,
2013-07-08 14:30:00,97.0,63.1,29.81,South,178,15.0,15.0,33,0.00,,,0.00,Wunderground v.1.15,2013-07-08 19:30:00,
2013-07-08 14:37:00,97.1,63.2,29.81,South,185,14.0,18.0,33,0.00,,,0.00,Wunderground v.1.15,2013-07-08 19:37:00,
2013-07-08 14:42:00,97.1,63.2,29.81,South,174,14.0,21.0,33,0.00,,,0.00,Wunderground v.1.15,2013-07-08 19:42:00,
2013-07-08 14:48:00,97.5,62.7,29.81,SE,146,17.0,21.0,32,0.00,,,0.00,Wunderground v.1.15,2013-07-08 19:48:00,
2013-07-08 14:53:00,97.7,62.0,29.81,South,185,16.0,20.0,31,0.00,,,0.00,Wunderground v.1.15,2013-07-08 19:53:00,
2013-07-08 14:59:00,97.5,63.6,29.80,SSE,168,15.0,21.0,33,0.00,,,0.00,Wunderground v.1.15,2013-07-08 19:59:00,
2013-07-08 15:04:00,97.6,63.6,29.80,South,177,14.0,20.0,33,0.00,,,0.00,Wunderground v.1.15,2013-07-08 20:04:00,
2013-07-08 15:10:00,97.7,61.0,29.80,SSE,161,15.0,15.0,30,0.00,,,0.00,Wunderground v.1.15,2013-07-08 20:10:00,
2013-07-08 15:19:00,98.1,61.4,29.80,SSE,166,14.0,19.0,30,0.00,,,0.00,Wunderground v.1.15,2013-07-08 20:19:00,
2013-07-08 15:26:00,97.7,61.0,29.80,SSE,167,15.0,21.0,30,0.00,,,0.00,Wunderground v.1.15,2013-07-08 20:26:00,
2013-07-08 15:32:00,97.9,60.2,29.80,South,182,16.0,18.0,29,0.00,,,0.00,Wunderground v.1.15,2013-07-08 20:32:00,
2013-07-08 15:38:00,98.3,61.5,29.80,SSW,194,15.0,19.0,30,0.00,,,0.00,Wunderground v.1.15,2013-07-08 20:38:00,
2013-07-08 15:45:00,98.1,62.3,29.80,South,179,12.0,17.0,31,0.00,,,0.00,Wunderground v.1.15,2013-07-08 20:45:00,
2013-07-08 15:54:00,98.8,62.0,29.80,SSE,165,13.0,21.0,30,0.00,,,0.00,Wunderground v.1.15,2013-07-08 20:54:00,
2013-07-08 16:00:00,98.7,61.9,29.79,SSW,197,13.0,17.0,30,0.00,,,0.00,Wunderground v.1.15,2013-07-08 21:00:00,
2013-07-08 16:05:00,98.5,60.8,29.79,South,186,14.0,19.0,29,0.00,,,0.00,Wunderground v.1.15,2013-07-08 21:05:00,
2013-07-08 16:11:00,98.3,61.5,29.79,South,175,15.0,19.0,30,0.00,,,0.00,Wunderground v.1.15,2013-07-08 21:11:00,
2013-07-08 16:17:00,98.6,61.8,29.79,South,169,15.0,21.0,30,0.00,,,0.00,Wunderground v.1.15,2013-07-08 21:17:00,
2013-07-08 16:24:00,98.4,61.6,29.79,SSE,166,15.0,20.0,30,0.00,,,0.00,Wunderground v.1.15,2013-07-08 21:24:00,
2013-07-08 16:33:00,98.5,62.6,29.79,South,172,14.0,18.0,31,0.00,,,0.00,Wunderground v.1.15,2013-07-08 21:33:00,
2013-07-08 16:38:00,98.9,62.1,29.79,SSE,168,15.0,21.0,30,0.00,,,0.00,Wunderground v.1.15,2013-07-08 21:38:00,
2013-07-08 16:45:00,98.8,63.8,29.79,South,182,15.0,19.0,32,0.00,,,0.00,Wunderground v.1.15,2013-07-08 21:45:00,
2013-07-08 16:52:00,98.4,63.5,29.78,SSW,197,14.0,23.0,32,0.00,,,0.00,Wunderground v.1.15,2013-07-08 21:52:00,
2013-07-08 17:00:00,98.0,63.1,29.79,South,171,16.0,24.0,32,0.00,,,0.00,Wunderground v.1.15,2013-07-08 22:00:00,
2013-07-08 17:05:00,98.0,63.1,29.79,South,173,16.0,24.0,32,0.00,,,0.00,Wunderground v.1.15,2013-07-08 22:05:00,
2013-07-08 17:11:00,98.1,64.1,29.78,SSE,166,16.0,22.0,33,0.00,,,0.00,Wunderground v.1.15,2013-07-08 22:11:00,
2013-07-08 17:16:00,98.2,63.3,29.78,South,187,18.0,25.0,32,0.00,,,0.00,Wunderground v.1.15,2013-07-08 22:16:00,
2013-07-08 17:22:00,97.8,62.9,29.78,South,175,17.0,22.0,32,0.00,,,0.00,Wunderground v.1.15,2013-07-08 22:22:00,
2013-07-08 17:29:00,97.9,63.0,29.78,South,186,16.0,22.0,32,0.00,,,0.00,Wunderground v.1.15,2013-07-08 22:29:00,
2013-07-08 17:36:00,97.9,63.0,29.78,South,171,13.0,18.0,32,0.00,,,0.00,Wunderground v.1.15,2013-07-08 22:36:00,
2013-07-08 17:41:00,98.1,63.2,29.78,South,180,16.0,24.0,32,0.00,,,0.00,Wunderground v.1.15,2013-07-08 22:41:00,
2013-07-08 17:47:00,97.3,63.4,29.78,SE,146,18.0,24.0,33,0.00,,,0.00,Wunderground v.1.15,2013-07-08 22:47:00,
2013-07-08 17:52:00,97.6,62.8,29.78,South,183,18.0,22.0,32,0.00,,,0.00,Wunderground v.1.15,2013-07-08 22:52:00,
2013-07-08 17:58:00,97.4,63.5,29.78,South,175,18.0,22.0,33,0.00,,,0.00,Wunderground v.1.15,2013-07-08 22:58:00,
2013-07-08 18:03:00,97.3,64.2,29.78,South,171,16.0,20.0,34,0.00,,,0.00,Wunderground v.1.15,2013-07-08 23:03:00,
2013-07-08 18:09:00,97.0,64.0,29.78,South,175,16.0,22.0,34,0.00,,,0.00,Wunderground v.1.15,2013-07-08 23:09:00,
2013-07-08 18:15:00,97.2,63.3,29.77,South,176,16.0,21.0,33,0.00,,,0.00,Wunderground v.1.15,2013-07-08 23:15:00,
2013-07-08 18:21:00,97.1,63.2,29.77,South,190,17.0,22.0,33,0.00,,,0.00,Wunderground v.1.15,2013-07-08 23:21:00,
2013-07-08 18:27:00,96.9,63.9,29.77,South,171,17.0,25.0,34,0.00,,,0.00,Wunderground v.1.15,2013-07-08 23:27:00,
2013-07-08 18:34:00,96.9,63.9,29.77,South,169,16.0,20.0,34,0.00,,,0.00,Wunderground v.1.15,2013-07-08 23:34:00,
2013-07-08 18:39:00,96.7,63.7,29.77,South,169,16.0,22.0,34,0.00,,,0.00,Wunderground v.1.15,2013-07-08 23:39:00,
2013-07-08 18:44:00,96.4,63.5,29.77,South,175,15.0,18.0,34,0.00,,,0.00,Wunderground v.1.15,2013-07-08 23:44:00,
2013-07-08 18:53:00,96.2,64.9,29.77,South,177,16.0,22.0,36,0.00,,,0.00,Wunderground v.1.15,2013-07-08 23:53:00,
2013-07-08 18:58:00,96.0,63.9,29.77,SSE,155,16.0,22.0,35,0.00,,,0.00,Wunderground v.1.15,2013-07-08 23:58:00,
2013-07-08 19:03:00,95.7,64.5,29.77,SSE,167,16.0,21.0,36,0.00,,,0.00,Wunderground v.1.15,2013-07-09 00:03:00,
2013-07-08 19:09:00,95.5,65.1,29.77,South,170,16.0,22.0,37,0.00,,,0.00,Wunderground v.1.15,2013-07-09 00:09:00,
2013-07-08 19:14:00,95.4,64.2,29.77,SSE,162,17.0,23.0,36,0.00,,,0.00,Wunderground v.1.15,2013-07-09 00:14:00,
2013-07-08 19:20:00,95.2,64.8,29.77,South,180,17.0,17.0,37,0.00,,,0.00,Wunderground v.1.15,2013-07-09 00:20:00,
2013-07-08 19:26:00,95.0,64.6,29.77,SSE,161,16.0,21.0,37,0.00,,,0.00,Wunderground v.1.15,2013-07-09 00:26:00,
2013-07-08 19:31:00,94.9,64.6,29.78,South,186,15.0,17.0,37,0.00,,,0.00,Wunderground v.1.15,2013-07-09 00:31:00,
2013-07-08 19:37:00,94.6,65.1,29.78,SSE,151,15.0,20.0,38,0.00,,,0.00,Wunderground v.1.15,2013-07-09 00:37:00,
2013-07-08 19:43:00,94.3,65.5,29.78,South,178,15.0,16.0,39,0.00,,,0.00,Wunderground v.1.15,2013-07-09 00:43:00,
2013-07-08 19:50:00,93.9,65.2,29.78,SSE,163,14.0,19.0,39,0.00,,,0.00,Wunderground v.1.15,2013-07-09 00:50:00,
2013-07-08 19:56:00,93.4,65.5,29.78,South,176,15.0,20.0,40,0.00,,,0.00,Wunderground v.1.15,2013-07-09 00:56:00,
2013-07-08 20:04:00,92.9,65.0,29.78,SSE,161,16.0,16.0,40,0.00,,,0.00,Wunderground v.1.15,2013-07-09 01:04:00,
2013-07-08 20:10:00,92.6,65.5,29.78,SSE,165,13.0,16.0,41,0.00,,,0.00,Wunderground v.1.15,2013-07-09 01:10:00,
2013-07-08 20:16:00,92.4,66.0,29.78,SSE,162,13.0,16.0,42,0.00,,,0.00,Wunderground v.1.15,2013-07-09 01:16:00,
2013-07-08 20:22:00,92.2,65.8,29.78,SE,145,14.0,17.0,42,0.00,,,0.00,Wunderground v.1.15,2013-07-09 01:22:00,
2013-07-08 20:28:00,91.8,66.1,29.78,SSE,166,13.0,17.0,43,0.00,,,0.00,Wunderground v.1.15,2013-07-09 01:28:00,
2013-07-08 20:33:00,91.5,65.8,29.79,South,173,11.0,13.0,43,0.00,,,0.00,Wunderground v.1.15,2013-07-09 01:33:00,
2013-07-08 20:41:00,91.1,66.2,29.79,SSE,164,12.0,14.0,44,0.00,,,0.00,Wunderground v.1.15,2013-07-09 01:41:00,
2013-07-08 20:47:00,90.7,66.4,29.79,SSE,168,11.0,15.0,45,0.00,,,0.00,Wunderground v.1.15,2013-07-09 01:47:00,
2013-07-08 20:53:00,90.4,66.2,29.79,SSE,157,12.0,15.0,45,0.00,,,0.00,Wunderground v.1.15,2013-07-09 01:53:00,
2013-07-08 20:59:00,90.2,66.6,29.79,South,169,13.0,15.0,46,0.00,,,0.00,Wunderground v.1.15,2013-07-09 01:59:00,
2013-07-08 21:05:00,89.9,66.3,29.79,SSE,164,13.0,18.0,46,0.00,,,0.00,Wunderground v.1.15,2013-07-09 02:05:00,
2013-07-08 21:13:00,89.3,66.4,29.79,SSE,166,12.0,13.0,47,0.00,,,0.00,Wunderground v.1.15,2013-07-09 02:13:00,
2013-07-08 21:23:00,88.9,66.1,29.79,SSE,161,11.0,14.0,47,0.00,,,0.00,Wunderground v.1.15,2013-07-09 02:23:00,
2013-07-08 21:30:00,88.6,65.8,29.80,SSE,167,12.0,12.0,47,0.00,,,0.00,Wunderground v.1.15,2013-07-09 02:30:00,
2013-07-08 21:36:00,88.4,65.6,29.80,SSE,156,12.0,16.0,47,0.00,,,0.00,Wunderground v.1.15,2013-07-09 02:36:00,
2013-07-08 21:43:00,88.1,65.3,29.80,South,175,12.0,15.0,47,0.00,,,0.00,Wunderground v.1.15,2013-07-09 02:43:00,
2013-07-08 21:48:00,87.9,65.8,29.80,SSE,163,12.0,15.0,48,0.00,,,0.00,Wunderground v.1.15,2013-07-09 02:48:00,
2013-07-08 21:53:00,87.7,65.6,29.80,SSE,157,12.0,15.0,48,0.00,,,0.00,Wunderground v.1.15,2013-07-09 02:53:00,
2013-07-08 22:03:00,87.4,65.9,29.81,SSE,161,11.0,15.0,49,0.00,,,0.00,Wunderground v.1.15,2013-07-09 03:03:00,
2013-07-08 22:09:00,87.3,65.8,29.81,SSE,155,12.0,17.0,49,0.00,,,0.00,Wunderground v.1.15,2013-07-09 03:09:00,
2013-07-08 22:16:00,87.1,66.2,29.81,South,169,13.0,16.0,50,0.00,,,0.00,Wunderground v.1.15,2013-07-09 03:16:00,
2013-07-08 22:23:00,86.9,66.6,29.82,SSE,150,13.0,16.0,51,0.00,,,0.00,Wunderground v.1.15,2013-07-09 03:23:00,
2013-07-08 22:29:00,86.8,66.5,29.82,South,175,13.0,19.0,51,0.00,,,0.00,Wunderground v.1.15,2013-07-09 03:29:00,
2013-07-08 22:35:00,86.6,66.9,29.82,South,169,13.0,17.0,52,0.00,,,0.00,Wunderground v.1.15,2013-07-09 03:35:00,
2013-07-08 22:42:00,86.5,66.8,29.82,SSE,168,14.0,18.0,52,0.00,,,0.00,Wunderground v.1.15,2013-07-09 03:42:00,
2013-07-08 22:53:00,86.1,67.0,29.83,South,170,13.0,17.0,53,0.00,,,0.00,Wunderground v.1.15,2013-07-09 03:53:00,
2013-07-08 22:58:00,85.9,67.3,29.83,South,171,13.0,17.0,54,0.00,,,0.00,Wunderground v.1.15,2013-07-09 03:58:00,
2013-07-08 23:01:00,85.8,67.2,29.83,SSE,168,13.0,16.0,54,0.00,,,0.00,Wunderground v.1.15,2013-07-09 04:01:00,
2013-07-08 23:02:00,85.7,67.1,29.83,SSE,168,13.0,16.0,54,0.00,,,0.00,Wunderground v.1.15,2013-07-09 04:02:00,
2013-07-08 23:04:00,85.6,67.0,29.83,SSE,161,12.0,16.0,54,0.00,,,0.00,Wunderground v.1.15,2013-07-09 04:04:00,
2013-07-08 23:05:00,85.6,67.0,29.83,SSE,167,12.0,16.0,54,0.00,,,0.00,Wunderground v.1.15,2013-07-09 04:05:00,
2013-07-08 23:09:00,85.5,67.0,29.83,South,171,12.0,16.0,54,0.00,,,0.00,Wunderground v.1.15,2013-07-09 04:09:00,
2013-07-08 23:15:00,85.3,67.3,29.83,SE,145,11.0,15.0,55,0.00,,,0.00,Wunderground v.1.15,2013-07-09 04:15:00,
2013-07-08 23:20:00,85.1,67.1,29.83,SSE,165,12.0,12.0,55,0.00,,,0.00,Wunderground v.1.15,2013-07-09 04:20:00,
2013-07-08 23:26:00,84.9,66.9,29.83,SSE,161,11.0,15.0,55,0.00,,,0.00,Wunderground v.1.15,2013-07-09 04:26:00,
2013-07-08 23:31:00,84.7,67.3,29.83,South,170,11.0,14.0,56,0.00,,,0.00,Wunderground v.1.15,2013-07-09 04:31:00,
2013-07-08 23:37:00,84.5,67.1,29.83,SSE,159,11.0,14.0,56,0.00,,,0.00,Wunderground v.1.15,2013-07-09 04:37:00,
2013-07-08 23:43:00,84.2,67.3,29.83,SSE,164,11.0,15.0,57,0.00,,,0.00,Wunderground v.1.15,2013-07-09 04:43:00,
2013-07-08 23:48:00,84.1,67.7,29.83,SSE,163,12.0,16.0,58,0.00,,,0.00,Wunderground v.1.15,2013-07-09 04:48:00,
2013-07-08 23:54:00,83.9,68.0,29.83,South,174,12.0,13.0,59,0.00,,,0.00,Wunderground v.1.15,2013-07-09 04:54:00,